• In Romania
  • List of Countries
  • For 7 days
  • Water Temperature
  • Satellite Maps
  • Weather Map
  • Weather Widgets
  • user-avatar
    Login

    Hourly Weather Rusanovo

    Today, 26 April, Thursday

    Time Temperature Precipitation Wind Pressure Humidity
    00:00 +7°C° 0.1 mm 2 mps 736 mmHg 86%
    01:00 +7°C° 0.1 mm 2 mps 735 mmHg 89%
    02:00 +8°C° 0 mm 2 mps 734 mmHg 92%
    03:00 +8°C° 0.3 mm 2 mps 733 mmHg 93%
    04:00 +8°C° 0.3 mm 3 mps 733 mmHg 94%
    05:00 +8°C° 0.3 mm 3 mps 732 mmHg 95%
    06:00 +8°C° 0.3 mm 4 mps 732 mmHg 92%
    07:00 +8°C° 0.3 mm 4 mps 733 mmHg 90%
    08:00 +9°C° 0 mm 5 mps 732 mmHg 86%
    09:00 +8°C° 0.2 mm 6 mps 733 mmHg 83%
    10:00 +7°C° 0.2 mm 6 mps 734 mmHg 81%
    11:00 +7°C° 0.2 mm 6 mps 735 mmHg 78%
    12:00 +8°C° 0.1 mm 6 mps 736 mmHg 71%
    13:00 +9°C° 0.1 mm 6 mps 737 mmHg 64%
    14:00 +10°C° 0 mm 5 mps 738 mmHg 58%
    15:00 +10°C° 0.1 mm 5 mps 738 mmHg 56%
    16:00 +10°C° 0.1 mm 5 mps 739 mmHg 55%
    17:00 +11°C° 0.1 mm 4 mps 739 mmHg 53%
    18:00 +10°C° 0 mm 4 mps 740 mmHg 60%
    19:00 +8°C° 0 mm 3 mps 740 mmHg 68%
    20:00 +7°C° 0 mm 2 mps 740 mmHg 75%
    21:00 +7°C° 0 mm 3 mps 741 mmHg 77%
    22:00 +5°C° 0 mm 3 mps 741 mmHg 80%
    23:00 +5°C° 0 mm 3 mps 741 mmHg 83%

    Tomorrow, 27 April, Friday

    Time Temperature Precipitation Wind Pressure Humidity
    00:00 +5°C° 0 mm 2 mps 741 mmHg 86%
    01:00 +5°C° 0 mm 2 mps 741 mmHg 90%
    02:00 +4°C° 0 mm 2 mps 742 mmHg 93%
    03:00 +4°C° 0 mm 2 mps 742 mmHg 94%
    04:00 +4°C° 0 mm 2 mps 742 mmHg 95%
    05:00 +3°C° 0 mm 2 mps 743 mmHg 96%
    06:00 +5°C° 0 mm 2 mps 743 mmHg 88%
    07:00 +7°C° 0 mm 3 mps 743 mmHg 79%
    08:00 +8°C° 0 mm 3 mps 743 mmHg 71%
    09:00 +9°C° 0 mm 3 mps 744 mmHg 64%
    10:00 +11°C° 0 mm 4 mps 744 mmHg 57%
    11:00 +12°C° 0 mm 4 mps 744 mmHg 50%
    12:00 +12°C° 0 mm 4 mps 744 mmHg 48%
    13:00 +13°C° 0 mm 4 mps 744 mmHg 46%
    14:00 +14°C° 0 mm 4 mps 744 mmHg 43%
    15:00 +13°C° 0 mm 4 mps 744 mmHg 45%
    16:00 +13°C° 0 mm 4 mps 744 mmHg 47%
    17:00 +13°C° 0 mm 3 mps 744 mmHg 49%
    18:00 +11°C° 0 mm 3 mps 744 mmHg 57%
    19:00 +9°C° 0 mm 2 mps 745 mmHg 66%
    20:00 +8°C° 0 mm 2 mps 745 mmHg 74%
    21:00 +7°C° 0.1 mm 2 mps 745 mmHg 77%
    22:00 +7°C° 0.1 mm 2 mps 746 mmHg 80%
    23:00 +6°C° 0.1 mm 2 mps 746 mmHg 83%

    Day after tomorrow, 28 April, Saturday

    Time Temperature Precipitation Wind Pressure Humidity
    00:00 +6°C° 0 mm 2 mps 746 mmHg 87%
    01:00 +5°C° 0 mm 2 mps 747 mmHg 90%
    02:00 +4°C° 0 mm 2 mps 747 mmHg 93%
    03:00 +4°C° 0 mm 2 mps 747 mmHg 94%
    04:00 +3°C° 0 mm 2 mps 747 mmHg 96%
    05:00 +3°C° 0 mm 2 mps 748 mmHg 97%
    06:00 +5°C° 0 mm 2 mps 748 mmHg 89%
    07:00 +6°C° 0 mm 2 mps 748 mmHg 81%
    08:00 +8°C° 0 mm 2 mps 749 mmHg 73%
    09:00 +9°C° 0 mm 3 mps 749 mmHg 66%
    10:00 +10°C° 0 mm 3 mps 749 mmHg 59%
    11:00 +12°C° 0 mm 3 mps 749 mmHg 51%
    12:00 +13°C° 0 mm 3 mps 749 mmHg 48%
    13:00 +13°C° 0 mm 3 mps 749 mmHg 45%
    14:00 +14°C° 0 mm 3 mps 749 mmHg 42%
    15:00 +14°C° 0 mm 3 mps 749 mmHg 42%
    16:00 +14°C° 0 mm 3 mps 749 mmHg 43%
    17:00 +14°C° 0 mm 3 mps 749 mmHg 43%
    18:00 +13°C° 0 mm 2 mps 749 mmHg 50%
    19:00 +12°C° 0 mm 2 mps 749 mmHg 57%
    20:00 +9°C° 0 mm 2 mps 749 mmHg 64%
    21:00 +9°C° 0 mm 2 mps 749 mmHg 67%
    22:00 +8°C° 0 mm 2 mps 749 mmHg 70%
    23:00 +7°C° 0 mm 2 mps 749 mmHg 74%

    29 April, Sunday

    Time Temperature Precipitation Wind Pressure Humidity
    00:00 +8°C° 0.4 mm 2 mps 749 mmHg 77%
    01:00 +8°C° 0.4 mm 3 mps 749 mmHg 81%
    02:00 +8°C° 0.4 mm 3 mps 749 mmHg 85%
    03:00 +8°C° 0.4 mm 3 mps 749 mmHg 87%
    04:00 +8°C° 0.4 mm 3 mps 749 mmHg 88%
    05:00 +8°C° 0.4 mm 3 mps 748 mmHg 90%
    06:00 +9°C° 0 mm 3 mps 748 mmHg 86%
    07:00 +10°C° 0 mm 3 mps 748 mmHg 82%
    08:00 +11°C° 0 mm 3 mps 748 mmHg 78%
    09:00 +13°C° 0 mm 3 mps 748 mmHg 74%
    10:00 +16°C° 0 mm 3 mps 747 mmHg 69%
    11:00 +17°C° 0 mm 3 mps 747 mmHg 65%
    12:00 +19°C° 0 mm 3 mps 747 mmHg 61%
    13:00 +20°C° 0 mm 3 mps 747 mmHg 56%
    14:00 +21°C° 0 mm 3 mps 747 mmHg 52%
    15:00 +21°C° 0 mm 3 mps 746 mmHg 55%
    16:00 +21°C° 0 mm 3 mps 746 mmHg 57%
    17:00 +20°C° 0 mm 3 mps 746 mmHg 60%
    18:00 +19°C° 0 mm 2 mps 746 mmHg 66%
    19:00 +17°C° 0 mm 2 mps 746 mmHg 73%
    20:00 +15°C° 0 mm 2 mps 746 mmHg 80%
    21:00 +15°C° 0.1 mm 2 mps 746 mmHg 84%
    22:00 +14°C° 0.1 mm 1 mps 746 mmHg 87%
    23:00 +14°C° 0.1 mm 1 mps 746 mmHg 90%

    30 April, Monday

    Time Temperature Precipitation Wind Pressure Humidity
    00:00 +14°C° 0.1 mm 1 mps 746 mmHg 92%
    01:00 +13°C° 0.1 mm 1 mps 745 mmHg 93%
    02:00 +13°C° 0.1 mm 1 mps 745 mmHg 95%
    03:00 +13°C° 0.2 mm 1 mps 745 mmHg 95%
    04:00 +13°C° 0.2 mm 1 mps 745 mmHg 95%
    05:00 +13°C° 0.2 mm 1 mps 745 mmHg 96%
    06:00 +14°C° 0.2 mm 1 mps 745 mmHg 92%
    07:00 +16°C° 0.2 mm 1 mps 745 mmHg 87%
    08:00 +18°C° 0.2 mm 1 mps 745 mmHg 83%
    09:00 +20°C° 0.1 mm 1 mps 745 mmHg 79%
    10:00 +20°C° 0.1 mm 2 mps 745 mmHg 74%
    11:00 +21°C° 0.1 mm 2 mps 745 mmHg 70%
    12:00 +21°C° 1.1 mm 2 mps 745 mmHg 70%
    13:00 +22°C° 1.1 mm 1 mps 745 mmHg 71%
    14:00 +22°C° 1.1 mm 1 mps 745 mmHg 71%
    15:00 +22°C° 0.2 mm 1 mps 745 mmHg 71%
    16:00 +22°C° 0.2 mm 1 mps 744 mmHg 71%
    17:00 +23°C° 0.2 mm 1 mps 744 mmHg 71%
    18:00 +21°C° 0.2 mm 1 mps 744 mmHg 76%
    19:00 +18°C° 0.2 mm 2 mps 744 mmHg 82%
    20:00 +17°C° 0.2 mm 2 mps 744 mmHg 88%
    21:00 +16°C° 0.3 mm 2 mps 744 mmHg 88%
    22:00 +16°C° 0.3 mm 2 mps 744 mmHg 89%
    23:00 +15°C° 0.3 mm 2 mps 744 mmHg 89%

    1 May, Tuesday

    Time Temperature Precipitation Wind Pressure Humidity
    00:00 +15°C° 0.1 mm 2 mps 744 mmHg 88%
    01:00 +14°C° 0.1 mm 2 mps 744 mmHg 88%
    02:00 +14°C° 0.1 mm 2 mps 744 mmHg 87%
    03:00 +14°C° 0 mm 2 mps 743 mmHg 87%
    04:00 +14°C° 0 mm 2 mps 743 mmHg 87%
    05:00 +13°C° 0 mm 2 mps 743 mmHg 87%
    06:00 +14°C° 0 mm 3 mps 743 mmHg 83%
    07:00 +16°C° 0 mm 3 mps 744 mmHg 80%
    08:00 +17°C° 0 mm 3 mps 744 mmHg 76%
    09:00 +18°C° 0 mm 4 mps 744 mmHg 75%
    10:00 +19°C° 0 mm 4 mps 745 mmHg 74%
    11:00 +20°C° 0 mm 4 mps 745 mmHg 72%
    12:00 +20°C° 0.1 mm 4 mps 745 mmHg 71%
    13:00 +20°C° 0.1 mm 4 mps 746 mmHg 69%
    14:00 +20°C° 0.1 mm 4 mps 746 mmHg 67%
    15:00 +21°C° 0 mm 3 mps 746 mmHg 62%
    16:00 +21°C° 0 mm 3 mps 747 mmHg 58%
    17:00 +21°C° 0 mm 3 mps 747 mmHg 53%
    18:00 +19°C° 0 mm 2 mps 747 mmHg 60%
    19:00 +16°C° 0 mm 2 mps 748 mmHg 66%
    20:00 +14°C° 0 mm 1 mps 748 mmHg 73%
    21:00 +13°C° 0 mm 1 mps 748 mmHg 75%
    22:00 +13°C° 0 mm 1 mps 748 mmHg 77%
    23:00 +12°C° 0 mm 1 mps 749 mmHg 80%
    Show more